Torna al catalogo

SL-3 R/B

AttivoPO
NORAD 7364·ROCKET BODY·🇷🇺 Russia

Lanciato Jul 9, 1974 da Plesetsk Cosmodrome

Loading…

Prossimi Passaggi (prossime 24 ore)

TLE

AggiornatoSource: Space-Track

Epoca: Sep 14, 2026, 14:01 UTC

1 07364U 74052B   26257.58418714  .00000238  00000-0  13500-3 0  9993
2 07364  81.2303 118.0596 0049688  15.5403 344.7277 14.06470534675637

Traccia SL-3 R/B in tempo reale con AllMySat

Download on the App Store